688  
ASUS43 KBIS 171910  
RWRND  
 
NORTH DAKOTA REGIONAL WEATHER ROUNDUP  
NATIONAL WEATHER SERVICE BISMARCK ND  
200 PM CDT TUE SEP 17 2019  
 
NOTE: "FAIR" INDICATES FEW OR NO CLOUDS BELOW 12,000 FEET WITH NO  
SIGNIFICANT WEATHER AND/OR S TO VISIBILITY
.  
 
 
NDZ001>003-009>011-017-172000-  
NORTHWEST NORTH DAKOTA  
 
CITY SKY/WX TMP DP RH WIND PRES REMARKS
 
WILLISTON MOSUNNY 75 62 64 S6 29.55F  
MINOT SUNNY 86 67 52 SE14 29.54F  
MINOT AFB SUNNY 84 67 57 SE14 29.53F  

 
 
NDZ018>021-031>035-040>046-172000-  
SOUTHWEST NORTH DAKOTA  
 
CITY SKY/WX TMP DP RH WIND PRES REMARKS
 
BISMARCK PTSUNNY 80 66 62 S10 29.60F  
DICKINSON PTSUNNY 85 52 32 S13 29.59F  
GARRISON N/A 80 66 62 S9 29.56F  
HETTINGER ARPT PTSUNNY 86 48 26 SW15G23 29.65F  

 
 
NDZ004>008-012>016-024-026-027-054-172000-  
NORTHEAST NORTH DAKOTA  
 
CITY SKY/WX TMP DP RH WIND PRES REMARKS
 
GRAND FORKS CLOUDY 84 68 58 S16 29.65F  
DEVILS LAKE CLOUDY 79 68 69 SE13 29.63F  

 
 
NDZ022-023-025-028>030-036>039-047>053-172000-  
SOUTHEAST NORTH DAKOTA  
 
CITY SKY/WX TMP DP RH WIND PRES REMARKS
 
FARGO MOSUNNY 85 70 60 S20G31 29.66F  
JAMESTOWN SUNNY 82 67 60 S20G25 29.63F  

 
 
 
 
CLICK HERE TO GO TO PREVIOUS BULLETINS.

The Nexlab ND Page Main Text Page

The Nexlab ND Page Main Text Page